FW3849 Weather Reports


time (UTC)temp
F
wind
direction
speed
knots
gust
knots
rain 1hr
in
rain 24hr
in
rain mn
in
humidity
%
barometer
mb
20260905090037 80 164 5.2 9.6 0.00 0.00 0.00 51 1010.0
20260905085537 81 190 4.3 7.8 0.00 0.00 0.00 51 1010.2
20260905085036 81 187 3.5 7.8 0.00 0.00 0.00 51 1010.3
20260905084538 81 179 3.5 8.7 0.00 0.00 0.00 51 1010.3
20260905084037 81 206 3.5 7.0 0.00 0.00 0.00 51 1010.3
20260905083036 81 160 2.6 7.0 0.00 0.00 0.00 51 1010.3
20260905082536 81 166 2.6 7.0 0.00 0.00 0.00 51 1010.4
20260905082036 80 193 2.6 5.2 0.00 0.00 0.00 51 1010.5
20260905081536 80 187 2.6 5.2 0.00 0.00 0.00 51 1010.4
20260905081035 80 193 1.7 5.2 0.00 0.00 0.00 51 1010.5
20260905080535 80 198 2.6 7.0 0.00 0.00 0.00 51 1010.5
20260905080037 81 200 2.6 7.0 0.00 0.00 0.00 51 1010.4
20260905075536 81 187 2.6 10.4 0.00 0.00 0.00 51 1010.4
20260905075034 81 180 2.6 10.4 0.00 0.00 0.00 51 1010.4
20260905074534 81 165 1.7 5.2 0.00 0.00 0.00 51 1010.4
20260905074035 81 163 2.6 5.2 0.00 0.00 0.00 51 1010.6
20260905073038 81 168 2.6 5.2 0.00 0.00 0.00 51 1010.6
20260905072533 81 168 1.7 5.2 0.00 0.00 0.00 51 1010.6
20260905072033 81 145 1.7 4.3 0.00 0.00 0.00 51 1010.5
20260905071537 81 146 1.7 4.3 0.00 0.00 0.00 51 1010.5
20260905071032 81 146 1.7 4.3 0.00 0.00 0.00 51 1010.4
20260905070535 81 146 1.7 3.5 0.00 0.00 0.00 51 1010.4
20260905070046 81 146 0.9 4.3 0.00 0.00 0.00 51 1010.5
20260905065532 81 146 1.7 4.3 0.00 0.00 0.00 51 1010.4
20260905065031 81 146 1.7 3.5 0.00 0.00 0.00 51 1010.4
20260905064542 81 146 1.7 3.5 0.00 0.00 0.00 51 1010.4
20260905064030 81 146 1.7 3.5 0.00 0.00 0.00 50 1010.3
20260905063031 81 146 2.6 4.3 0.00 0.00 0.00 50 1010.2
20260905062530 81 145 1.7 4.3 0.00 0.00 0.00 50 1010.3
20260905062030 81 145 1.7 4.3 0.00 0.00 0.00 50 1010.2
20260905061529 81 153 1.7 3.5 0.00 0.00 0.00 49 1010.2
20260905061028 81 154 1.7 3.5 0.00 0.00 0.00 49 1010.2
20260905060528 82 154 0.9 3.5 0.00 0.00 0.00 49 1010.0
20260905060028 82 153 1.7 3.5 0.00 0.00 0.00 49 1010.2
20260905055529 82 153 0.9 3.5 0.00 0.00 0.00 49 1010.1
20260905055032 82 153 0.9 4.3 0.00 0.00 0.00 49 1010.0
20260905054535 82 153 1.7 5.2 0.00 0.00 0.00 49 1010.0
20260905054030 82 153 2.6 7.0 0.00 0.00 0.00 49 1010.1
20260905053025 82 159 3.5 5.2 0.00 0.00 0.00 49 1010.0
20260905052525 82 157 1.7 4.3 0.00 0.00 0.00 49 1010.0
20260905052025 82 156 1.7 4.3 0.00 0.00 0.00 49 1010.1
20260905051538 82 157 2.6 4.3 0.00 0.00 0.00 49 1010.1
20260905051023 82 157 1.7 3.5 0.00 0.00 0.00 49 1010.1
20260905050524 82 156 1.7 4.3 0.00 0.00 0.00 49 1010.3
20260905050020 82 157 1.7 7.0 0.00 0.00 0.00 49 1010.3
20260905045521 82 158 2.6 7.0 0.00 0.00 0.00 49 1010.3
20260905045021 82 194 1.7 7.0 0.00 0.00 0.00 49 1010.2
20260905044521 82 179 2.6 5.2 0.00 0.00 0.00 50 1010.2
20260905044020 82 175 2.6 5.2 0.00 0.00 0.00 50 1010.2
20260905043022 82 174 2.6 5.2 0.00 0.00 0.00 50 1010.1
20260905042521 82 181 1.7 5.2 0.00 0.00 0.00 50 1010.2
20260905042021 82 191 1.7 5.2 0.00 0.00 0.00 50 1010.2
20260905041521 82 174 2.6 5.2 0.00 0.00 0.00 50 1010.1
20260905041020 82 174 2.6 5.2 0.00 0.00 0.00 50 1010.1
20260905040520 82 162 2.6 5.2 0.00 0.00 0.00 50 1010.1
20260905040024 82 161 2.6 6.1 0.00 0.00 0.00 50 1010.2
20260905035519 81 161 2.6 7.8 0.00 0.00 0.00 50 1010.2
20260905035021 81 142 3.5 7.8 0.00 0.00 0.00 51 1010.3
20260905034528 81 131 2.6 7.8 0.00 0.00 0.00 51 1010.3
20260905034020 81 160 2.6 5.2 0.00 0.00 0.00 51 1010.4
20260905033026 81 166 1.7 5.2 0.00 0.00 0.00 50 1010.4
20260905032521 81 185 3.5 7.8 0.00 0.00 0.00 51 1010.4
20260905032024 81 183 3.5 8.7 0.00 0.00 0.00 50 1010.3
20260905031521 81 183 4.3 8.7 0.00 0.00 0.00 50 1010.4
20260905031020 81 185 3.5 8.7 0.00 0.00 0.00 50 1010.4
20260905030521 81 169 4.3 8.7 0.00 0.00 0.00 49 1010.3
20260905030022 82 182 3.5 7.8 0.00 0.00 0.00 48 1010.1
20260905025522 82 175 3.5 7.8 0.00 0.00 0.00 48 1010.0
20260905025020 82 178 3.5 9.6 0.00 0.00 0.00 48 1009.9
20260905024523 82 191 7.0 9.6 0.00 0.00 0.00 48 1009.9
20260905024021 81 196 5.2 12.2 0.00 0.00 0.00 49 1009.8
20260905023017 81 200 7.0 12.2 0.00 0.00 0.00 49 1009.8
20260905022517 81 213 7.8 10.4 0.00 0.00 0.00 49 1009.9
20260905022017 81 204 4.3 9.6 0.00 0.00 0.00 50 1010.1
20260905021533 81 199 6.1 12.2 0.00 0.00 0.00 50 1010.3
20260905021016 81 194 7.0 13.0 0.00 0.00 0.00 50 1010.3
20260905020517 80 185 8.7 13.0 0.00 0.00 0.00 51 1010.3
20260905020021 80 173 7.0 11.3 0.00 0.00 0.00 51 1010.3
20260905015515 80 189 5.2 13.0 0.00 0.00 0.00 52 1010.2
20260905015017 80 189 7.8 15.6 0.00 0.00 0.00 52 1010.4
20260905014515 80 208 11.3 17.4 0.00 0.00 0.00 52 1010.3
20260905014015 81 199 10.4 16.5 0.00 0.00 0.00 50 1010.6
20260905013018 81 191 5.2 13.9 0.00 0.00 0.00 50 1010.3
20260905012518 81 164 7.0 14.8 0.00 0.00 0.00 50 1010.1
20260905012018 81 188 9.6 18.2 0.00 0.00 0.00 50 1010.1
20260905011517 81 185 11.3 27.8 0.00 0.00 0.00 50 1010.1
20260905011019 81 167 13.9 27.8 0.00 0.00 0.00 50 1009.8
20260905010518 81 133 12.2 22.6 0.00 0.00 0.00 50 1009.3
20260905010020 82 148 9.6 20.9 0.00 0.00 0.00 49 1009.1
20260905005517 83 158 11.3 21.7 0.00 0.00 0.00 47 1008.9
20260905005017 84 173 10.4 21.7 0.00 0.00 0.00 47 1008.7
20260905004520 84 185 7.8 19.1 0.00 0.00 0.00 47 1008.6
20260905004017 85 75 10.4 22.6 0.00 0.00 0.00 45 1008.6
20260905003028 85 127 7.8 16.5 0.00 0.00 0.00 44 1008.5
20260905002520 85 112 8.7 19.1 0.00 0.00 0.00 44 1008.4
20260905002020 85 136 7.8 28.7 0.00 0.00 0.00 44 1008.2
20260905001520 86 127 13.0 28.7 0.00 0.00 0.00 43 1008.1
20260905001020 88 152 14.8 26.9 0.00 0.00 0.00 41 1008.0
20260905000520 89 104 11.3 25.2 0.00 0.00 0.00 38 1007.9
20260905000020 92 137 15.6 23.5 0.00 0.00 0.00 35 1007.8
20260904235519 97 127 12.2 22.6 0.00 0.00 0.00 28 1007.8
20260904235019 100 163 6.1 11.3 0.00 0.00 0.00 22 1007.2
20260904234519 100 179 7.0 11.3 0.00 0.00 0.00 22 1007.2
20260904234021 100 183 8.7 14.8 0.00 0.00 0.00 22 1007.0
20260904233014 100 157 3.5 11.3 0.00 0.00 0.00 21 1006.8
20260904232515 100 199 3.5 8.7 0.00 0.00 0.00 20 1006.8
20260904232012 100 181 3.5 9.6 0.00 0.00 0.00 20 1006.8
20260904231513 100 150 1.7 10.4 0.00 0.00 0.00 19 1006.6
20260904231013 100 165 4.3 10.4 0.00 0.00 0.00 20 1006.4
20260904230513 100 192 4.3 13.0 0.00 0.00 0.00 20 1006.3
20260904230013 100 198 7.8 13.0 0.00 0.00 0.00 20 1006.3
20260904225514 100 176 4.3 9.6 0.00 0.00 0.00 21 1006.1
20260904225013 100 194 4.3 11.3 0.00 0.00 0.00 21 1006.0
20260904224514 100 187 5.2 11.3 0.00 0.00 0.00 21 1006.0
20260904224013 100 194 4.3 11.3 0.00 0.00 0.00 21 1006.0
20260904223015 100 227 7.8 11.3 0.00 0.00 0.00 22 1006.0
20260904222517 100 197 4.3 12.2 0.00 0.00 0.00 22 1006.1
20260904222014 100 195 7.0 14.8 0.00 0.00 0.00 21 1006.1
20260904221533 100 135 7.0 14.8 0.00 0.00 0.00 21 1006.2
20260904221013 100 165 2.6 9.6 0.00 0.00 0.00 22 1006.3
20260904220513 100 122 4.3 13.0 0.00 0.00 0.00 23 1006.3
20260904220012 100 202 7.8 13.0 0.00 0.00 0.00 22 1006.4
20260904215512 100 204 8.7 13.0 0.00 0.00 0.00 22 1006.5
20260904215011 101 189 7.0 13.0 0.00 0.00 0.00 21 1006.5
20260904214515 101 200 5.2 11.3 0.00 0.00 0.00 22 1006.4
20260904214014 101 137 4.3 7.8 0.00 0.00 0.00 21 1006.4
20260904213015 100 117 2.6 7.0 0.00 0.00 0.00 20 1006.5
20260904212510 100 244 4.3 12.2 0.00 0.00 0.00 18 1006.7
20260904212009 100 222 4.3 13.0 0.00 0.00 0.00 20 1006.8
20260904211509 100 239 6.1 9.6 0.00 0.00 0.00 20 1006.8
20260904211011 100 211 3.5 8.7 0.00 0.00 0.00 21 1006.9
20260904210507 100 89 1.7 10.4 0.00 0.00 0.00 21 1007.0
20260904210006 100 183 6.1 12.2 0.00 0.00 0.00 22 1007.3
20260904205505 100 186 7.8 12.2 0.00 0.00 0.00 22 1007.3
20260904205003 100 127 1.7 9.6 0.00 0.00 0.00 22 1007.4
20260904204505 100 188 3.5 9.6 0.00 0.00 0.00 21 1007.6
20260904204006 99 207 3.5 9.6 0.00 0.00 0.00 21 1007.7
20260904203056 99 189 5.2 10.4 0.00 0.00 0.00 21 1007.9
20260904202556 98 110 2.6 10.4 0.00 0.00 0.00 23 1007.9
20260904202054 98 164 4.3 9.6 0.00 0.00 0.00 23 1008.0
20260904201555 98 244 3.5 8.7 0.00 0.00 0.00 24 1008.0
20260904201055 98 199 3.5 9.6 0.00 0.00 0.00 23 1008.1
20260904200555 98 198 2.6 8.7 0.00 0.00 0.00 25 1008.2
20260904200121 98 194 4.3 8.7 0.00 0.00 0.00 25 1008.3
20260904195552 99 220 3.5 7.8 0.00 0.00 0.00 26 1008.4
20260904195054 99 179 3.5 8.7 0.00 0.00 0.00 25 1008.4
20260904194630 98 70 2.6 8.7 0.00 0.00 0.00 27 1008.5
20260904194049 98 131 0.9 7.8 0.00 0.00 0.00 26 1008.4
20260904193055 98 211 4.3 10.4 0.00 0.00 0.00 27 1008.6
20260904192553 98 77 2.6 7.8 0.00 0.00 0.00 28 1008.7
20260904192055 97 138 2.6 5.2 0.00 0.00 0.00 28 1008.8
20260904191558 97 150 1.7 8.7 0.00 0.00 0.00 28 1008.8
20260904191050 97 142 3.5 8.7 0.00 0.00 0.00 28 1008.9
20260904190548 97 150 2.6 7.8 0.00 0.00 0.00 29 1009.0
20260904190052 97 211 3.5 7.8 0.00 0.00 0.00 29 1009.1
20260904185545 96 88 1.7 4.3 0.00 0.00 0.00 30 1009.2
20260904185044 96 146 1.7 7.0 0.00 0.00 0.00 30 1009.3
20260904184550 96 127 2.6 5.2 0.00 0.00 0.00 30 1009.3
20260904184041 96 189 4.3 9.6 0.00 0.00 0.00 30 1009.3
20260904183032 96 145 3.5 11.3 0.00 0.00 0.00 31 1009.5
20260904182536 95 56 2.6 11.3 0.00 0.00 0.00 32 1009.6
20260904182032 95 236 3.5 8.7 0.00 0.00 0.00 32 1009.7
20260904181531 95 216 1.7 7.0 0.00 0.00 0.00 32 1009.8
20260904181031 95 229 3.5 7.0 0.00 0.00 0.00 32 1009.9
20260904180532 94 193 2.6 7.8 0.00 0.00 0.00 34 1009.9
20260904180031 95 206 3.5 7.8 0.00 0.00 0.00 34 1010.0
20260904175530 94 185 1.7 5.2 0.00 0.00 0.00 34 1010.0
20260904175028 94 183 1.7 6.1 0.00 0.00 0.00 34 1010.1
20260904174526 94 252 0.9 7.0 0.00 0.00 0.00 34 1010.2
20260904174025 93 256 0.9 5.2 0.00 0.00 0.00 34 1010.4
20260904173035 93 198 2.6 7.0 0.00 0.00 0.00 34 1010.5
20260904172529 93 297 3.5 7.0 0.00 0.00 0.00 35 1010.5
20260904172029 93 301 1.7 6.1 0.00 0.00 0.00 35 1010.6
20260904171538 93 215 2.6 6.1 0.00 0.00 0.00 35 1010.7
20260904171025 93 350 0.9 5.2 0.00 0.00 0.00 34 1010.6
20260904170527 93 334 2.6 5.2 0.00 0.00 0.00 35 1010.6
20260904170023 91 7 1.7 7.8 0.00 0.00 0.00 38 1010.7
20260904165522 90 238 2.6 7.8 0.00 0.00 0.00 39 1010.7
20260904165022 90 256 2.6 7.8 0.00 0.00 0.00 40 1010.8
20260904164524 90 249 2.6 7.0 0.00 0.00 0.00 39 1010.9
20260904164025 89 156 0.9 4.3 0.00 0.00 0.00 41 1010.8
20260904163021 89 257 2.6 7.0 0.00 0.00 0.00 43 1010.7
20260904162521 88 239 2.6 6.1 0.00 0.00 0.00 45 1010.6
20260904162024 87 211 2.6 7.0 0.00 0.00 0.00 46 1010.7
20260904161523 87 200 4.3 7.0 0.00 0.00 0.00 47 1010.8
20260904161019 87 257 4.3 8.7 0.00 0.00 0.00 47 1010.7
20260904160519 86 227 5.2 8.7 0.00 0.00 0.00 48 1010.7
20260904160020 86 252 5.2 7.8 0.00 0.00 0.00 49 1010.7
20260904155518 86 234 2.6 7.8 0.00 0.00 0.00 50 1010.7
20260904155017 85 231 4.3 8.7 0.00 0.00 0.00 50 1010.7
20260904154517 85 215 3.5 9.6 0.00 0.00 0.00 51 1010.5
20260904154017 85 196 3.5 9.6 0.00 0.00 0.00 52 1010.6
20260904153022 84 219 6.1 9.6 0.00 0.00 0.00 53 1010.6
20260904152514 84 231 5.2 8.7 0.00 0.00 0.00 53 1010.7
20260904152013 84 200 3.5 7.8 0.00 0.00 0.00 54 1010.6
20260904151525 83 198 5.2 8.7 0.00 0.00 0.00 55 1010.6
20260904151013 83 214 5.2 8.7 0.00 0.00 0.00 55 1010.6
20260904150513 83 229 4.3 7.8 0.00 0.00 0.00 55 1010.8
20260904150013 83 225 3.5 7.8 0.00 0.00 0.00 55 1010.8
20260904145513 82 223 5.2 7.8 0.00 0.00 0.00 56 1010.9
20260904145013 82 234 3.5 7.8 0.00 0.00 0.00 56 1010.9
20260904144512 82 175 4.3 7.8 0.00 0.00 0.00 56 1011.0
20260904144013 82 197 5.2 8.7 0.00 0.00 0.00 57 1011.0
20260904143013 81 206 6.1 9.6 0.00 0.00 0.00 57 1010.9
20260904142514 81 203 4.3 8.7 0.00 0.00 0.00 58 1010.9
20260904142013 81 206 5.2 8.7 0.00 0.00 0.00 58 1011.0
20260904141513 81 229 5.2 8.7 0.00 0.00 0.00 58 1010.8
20260904141017 81 209 5.2 10.4 0.00 0.00 0.00 58 1010.9
20260904140512 81 191 6.1 10.4 0.00 0.00 0.00 58 1010.7
20260904140012 81 193 7.0 9.6 0.00 0.00 0.00 58 1010.8
20260904135513 81 210 2.6 7.8 0.00 0.00 0.00 58 1011.0
20260904135011 81 187 4.3 7.8 0.00 0.00 0.00 58 1011.0
20260904134509 81 223 4.3 7.8 0.00 0.00 0.00 58 1010.8
20260904134009 81 244 3.5 7.8 0.00 0.00 0.00 58 1010.8
20260904133019 80 230 4.3 7.0 0.00 0.00 0.00 59 1010.6
20260904132517 80 177 1.7 6.1 0.00 0.00 0.00 59 1010.6
20260904132015 80 150 2.6 6.1 0.00 0.00 0.00 59 1010.4
20260904131515 80 200 2.6 5.2 0.00 0.00 0.00 59 1010.1
20260904131013 80 173 2.6 7.0 0.00 0.00 0.00 60 1010.0
20260904130512 79 196 4.3 7.0 0.00 0.00 0.00 60 1009.9
20260904130012 79 183 3.5 7.8 0.00 0.00 0.00 60 1009.9
20260904125512 79 190 4.3 7.8 0.00 0.00 0.00 60 1009.8
20260904125012 79 172 1.7 4.3 0.00 0.00 0.00 60 1009.8
20260904124511 79 187 1.7 3.5 0.00 0.00 0.00 60 1009.7
20260904124009 79 188 1.7 3.5 0.00 0.00 0.00 59 1009.6
20260904123001 79 189 1.7 4.3 0.00 0.00 0.00 59 1009.6
20260904122503 79 189 1.7 4.3 0.00 0.00 0.00 59 1009.5
20260904122101 79 190 1.7 4.3 0.00 0.00 0.00 59 1009.4
20260904121600 79 190 2.6 6.1 0.00 0.00 0.00 58 1009.4
20260904121059 80 161 1.7 6.1 0.00 0.00 0.00 58 1009.2
20260904120558 80 180 1.7 4.3 0.00 0.00 0.00 58 1009.3
20260904120058 80 180 1.7 4.3 0.00 0.00 0.00 57 1009.2
20260904115556 80 184 1.7 4.3 0.00 0.00 0.00 57 1009.2
20260904115156 80 183 1.7 5.2 0.00 0.00 0.00 57 1009.1
20260904114556 80 183 3.5 7.0 0.00 0.00 0.00 57 1009.2
20260904114055 80 194 2.6 7.0 0.00 0.00 0.00 57 1009.1
20260904113054 81 195 2.6 7.0 0.00 0.00 0.00 56 1009.1
20260904112552 81 199 3.5 7.0 0.00 0.00 0.00 56 1009.1
20260904112052 81 187 3.5 8.7 0.00 0.00 0.00 56 1009.2
20260904111552 81 206 6.1 11.3 0.00 0.00 0.00 55 1009.0
20260904111051 81 201 5.2 8.7 0.00 0.00 0.00 55 1009.0
20260904110552 82 202 6.1 10.4 0.00 0.00 0.00 55 1009.0
20260904110048 82 208 5.2 13.0 0.00 0.00 0.00 55 1009.0
20260904105547 82 198 7.8 13.0 0.00 0.00 0.00 55 1008.9
20260904105045 81 188 7.8 13.0 0.00 0.00 0.00 55 1009.0
20260904104545 81 206 6.1 10.4 0.00 0.00 0.00 55 1009.1
20260904104046 81 185 4.3 7.8 0.00 0.00 0.00 55 1009.1
20260904103049 81 187 2.6 4.3 0.00 0.00 0.00 54 1009.1
20260904102541 82 194 2.6 4.3 0.00 0.00 0.00 54 1009.2
20260904102039 82 194 2.6 7.0 0.00 0.00 0.00 53 1009.1
20260904101538 82 195 3.5 7.0 0.00 0.00 0.00 53 1009.1
20260904101037 82 182 1.7 8.7 0.00 0.00 0.00 53 1009.0
20260904100537 82 193 2.6 10.4 0.00 0.00 0.00 52 1008.9
20260904100037 83 184 5.2 11.3 0.00 0.00 0.00 53 1008.9
20260904095536 83 154 7.0 13.0 0.00 0.00 0.00 52 1008.8
20260904095036 83 210 8.7 13.0 0.00 0.00 0.00 52 1008.8
20260904094535 83 209 8.7 13.0 0.00 0.00 0.00 52 1008.7
20260904094034 83 207 7.0 10.4 0.00 0.00 0.00 51 1008.8
20260904093039 83 215 7.0 13.0 0.00 0.00 0.00 50 1008.7
20260904092536 84 204 7.8 13.9 0.00 0.00 0.00 50 1008.7
20260904092036 84 208 7.8 13.9 0.00 0.00 0.00 49 1008.6
20260904091539 84 199 7.0 14.8 0.00 0.00 0.00 49 1008.8
20260904091035 84 211 7.8 14.8 0.00 0.00 0.00 48 1008.8
20260904090535 84 210 7.0 13.0 0.00 0.00 0.00 48 1008.6